Regional Weather Roundup
Issued by NWS

Home | Current Version | Previous Version | Text Only | Print | Product List | Glossary Off
Versions: 1 2 3 4 5 6 7 8 9 10 11 12 13 14 15 16 17 18 19 20 21 22 23 24 25 26 27 28 29 30 31 32 33 34 35 36 37 38 39 40 41 42 43 44 45 46 47 48 49 50

000
ASUS43 KFSD 250702
RWRSD

WEATHER ROUNDUP FOR SOUTH DAKOTA
NATIONAL WEATHER SERVICE SIOUX FALLS SD
200 AM CDT SUN JUN 25 2017

NOTE: "FAIR" INDICATES FEW OR NO CLOUDS BELOW 12,000 FEET WITH NO
SIGNIFICANT WEATHER AND/OR OBSTRUCTIONS TO VISIBILITY.


SDZ001>005-009-010-012>017-250800-
NORTHWEST AND NORTH CENTRAL SOUTH DAKOTA

CITY           SKY/WX    TMP DP  RH WIND       PRES   REMARKS
BUFFALO          N/A     50  32  50 CALM      30.29S
FAITH            N/A     50  35  56 NE3       30.33F
MOBRIDGE       CLEAR     43  38  82 N7        30.28S
$$

SDZ012>016-024>037-041>051-057-063-072>074-250800-
SOUTHWEST AND SOUTH CENTRAL SOUTH DAKOTA

CITY           SKY/WX    TMP DP  RH WIND       PRES   REMARKS
RAPID CTY ARPT PTCLDY    44  32  62 W3        30.38S
PIERRE         NOT AVBL
CUSTER         CLEAR     48  27  44 E3        30.43S
ELLSWORTH AFB  PTCLDY    53  31  43 CALM      30.38R
PHILIP         CLOUDY    52  35  52 CALM      30.35R
PINE RIDGE     PTCLDY    47  40  76 E5        30.37S
SPEARFISH      FAIR      45  34  65 SE5       30.39S
WINNER         FAIR      46  37  71 SW6       30.33R
$$

SDZ004>011-016>023-039-040-250800-
NORTHEAST SOUTH DAKOTA

CITY           SKY/WX    TMP DP  RH WIND       PRES   REMARKS
ABERDEEN       MOCLDY    49  43  80 NW8       30.25S
WATERTOWN      CLOUDY    52  43  71 N10       30.21S
BROOKINGS      PTCLDY    50  45  83 NW7       30.21F
SISSETON         N/A     51  45  79 NW9       30.20S
$$

SDZ017-020-022-023-036>040-048>070-250800-
SOUTHEAST SOUTH DAKOTA

CITY           SKY/WX    TMP DP  RH WIND       PRES   REMARKS
SIOUX FALLS    CLEAR     50  45  83 W7        30.22F
HURON          PTCLDY    45  43  93 NW6       30.26R
CHAMBERLAIN    CLEAR     45  42  88 SW5       30.30R
YANKTON        CLEAR     51  42  71 W7        30.27R
$$

ABBREVIATIONS USED IN REMARKS
   TC - TEMPERATURE IN CELSIUS
  WCI - WIND CHILL INDEX
   HX - HEAT INDEX
  VSB - VISIBILITY




USA.gov is the U.S. government's official web portal to all federal, state and local government web resources and services.